User: anonymous   Login
Location: Pabrico
(37.5827°N, 122.0063°W)
Time: 15:11:34
(UTC+00:00)
Language:

Cosmos 1452 Rocket - Orbit

View from above orbital plane
View from above orbital plane
View from above satellite
View from above satellite

Ground track
Ground track

The orbit data is extracted from the following two-line orbital elements,

1 13992U 83031B   24173.93828956  .00000294  00000-0  10842-3 0  9999
2 13992  74.0533 347.0539 0004414  46.3585 313.7934 14.36876441156313
Epoch (UTC): 21 June 2024 22:31:08
Eccentricity: 0.0004414
inclination: 74.0533°
perigee height: 765 km
apogee height: 772 km
right ascension of ascending node: 347.0539°
argument of perigee: 46.3585°
revolutions per day: 14.36876441
mean anomaly at epoch: 313.7934°
orbit number at epoch: 15631

The dashed part of the orbit path shows where the satellite is in the earth's shadow,  

DLR